"Pseudo-MPEC" for P22n0ut

Created 2026 May 8 1:35:07 UT using Find_Orb

Click here for an explanation of pseudo-MPECs

 
 Astrometry: 
     P22n0ut*0C2026 05 07.50407315 29 19.121+23 28 30.90   ~57GZ 22.61wXNEOCPF52
     P22n0ut 0C2026 05 07.51577715 29 18.295+23 28 36.46   ~57GZ 22.83wXNEOCPF52
     P22n0ut 0C2026 05 07.52741215 29 17.510+23 28 41.67   ~57GZ 22.50wXNEOCPF52

Station data:
(F52) Pan-STARRS 2, Haleakala  (N20.707382 W156.255910)  US/Hawaii.
   Observers J. Herman, T. Lowe, P. Minguez, A. Schultz, I. Smith. Measurers
   K. Chambers, T. de Boer, J. Fairlamb, H. Gao, M. Huber, C.-C. Lin, E.
   Magnier, Y. Ramanjooloo, R. Wainscoat, R. Weryk. 1.8-m Ritchey-Chrétien +
   CCD.

Orbital elements:  P22n0ut
   Perihelion 2025 Oct 27.195126 +/- 347 TT =  4:40:58.8 (JD 2460975.695126)
Epoch 2026 May  8.0 TT = JDT 2461168.5   Earth MOID: 0.3003      AutoNEOCP
M  12.715553562 +/- 70              (J2000 ecliptic)
n   0.065950373 +/- 0.125           Peri.  293.742935 +/- 60
a   6.067240465 +/- 7.69            Node   185.884491 +/- 55
e   0.83123624 +/- 0.264            Incl.   39.237395 +/- 43
P  14.94469                H 18.20  G  0.15   U 11.4  SR
q 1.023930307 +/- 1.09    Q 11.11055062 +/- 31.5
From 3 observations 2026 May 7 (33.6 min); mean residual 0".10
Residuals in arcseconds: 
260507 F52  .08+  .05-    260507 F52  .16-  .10+    260507 F52  .08+  .05-    

Ephemerides (geocentric):
Date (UTC) HH   RA             Dec           delta  r     elong  mag " sig PA
---- --------  ------------   ------------  ------ ------ -----  --- --------
2026 05 08 02  15 28 40.374   +23 32 56.16  1.8669 2.7093 138.8 22.5  181  97
2026 05 08 03  15 28 37.585   +23 33 14.90  1.8673 2.7097 138.8 22.5  194  98
2026 05 08 04  15 28 34.797   +23 33 33.59  1.8678 2.7101 138.8 22.5  206  98
2026 05 08 05  15 28 32.009   +23 33 52.24  1.8683 2.7106 138.8 22.5  219  98
2026 05 08 06  15 28 29.223   +23 34 10.84  1.8687 2.7110 138.8 22.5  231  98
2026 05 08 07  15 28 26.437   +23 34 29.40  1.8692 2.7114 138.8 22.5  244  98
2026 05 08 08  15 28 23.651   +23 34 47.90  1.8697 2.7118 138.8 22.5  257  98
2026 05 08 09  15 28 20.866   +23 35 06.36  1.8701 2.7122 138.8 22.5  269  98
2026 05 08 10  15 28 18.082   +23 35 24.78  1.8706 2.7126 138.8 22.5  282  98
2026 05 08 11  15 28 15.299   +23 35 43.15  1.8711 2.7130 138.8 22.5  295  98
2026 05 08 12  15 28 12.516   +23 36 01.47  1.8716 2.7134 138.8 22.5  308  98
2026 05 08 13  15 28 09.735   +23 36 19.75  1.8720 2.7138 138.8 22.5  321  98
2026 05 08 14  15 28 06.954   +23 36 37.98  1.8725 2.7142 138.8 22.5  335  98
2026 05 08 15  15 28 04.173   +23 36 56.16  1.8730 2.7146 138.7 22.5  348  98
2026 05 08 16  15 28 01.393   +23 37 14.30  1.8734 2.7150 138.7 22.5  361  98
2026 05 08 17  15 27 58.615   +23 37 32.39  1.8739 2.7154 138.7 22.5  375  98
2026 05 08 18  15 27 55.836   +23 37 50.43  1.8744 2.7158 138.7 22.5  388  98
2026 05 08 19  15 27 53.059   +23 38 08.43  1.8749 2.7162 138.7 22.5  402  98
2026 05 08 20  15 27 50.282   +23 38 26.38  1.8753 2.7166 138.7 22.5  416  98
2026 05 08 21  15 27 47.506   +23 38 44.28  1.8758 2.7170 138.7 22.5  430  98
2026 05 08 22  15 27 44.731   +23 39 02.14  1.8763 2.7174 138.7 22.5  444  98
2026 05 08 23  15 27 41.957   +23 39 19.96  1.8768 2.7178 138.7 22.5  458  98
2026 05 09 00  15 27 39.183   +23 39 37.72  1.8772 2.7182 138.7 22.5  472  98
2026 05 09 01  15 27 36.410   +23 39 55.44  1.8777 2.7186 138.7 22.5  486  98
2026 05 09 02  15 27 33.638   +23 40 13.12  1.8782 2.7190 138.7 22.5  500  98
2026 05 09 03  15 27 30.867   +23 40 30.74  1.8787 2.7194 138.6 22.6  515  99
2026 05 09 04  15 27 28.096   +23 40 48.33  1.8792 2.7198 138.6 22.6  529  99
2026 05 09 05  15 27 25.327   +23 41 05.86  1.8796 2.7202 138.6 22.6  544  99
2026 05 09 06  15 27 22.558   +23 41 23.35  1.8801 2.7206 138.6 22.6  559  99
2026 05 09 07  15 27 19.790   +23 41 40.79  1.8806 2.7211 138.6 22.6  574  99
2026 05 09 08  15 27 17.022   +23 41 58.19  1.8811 2.7215 138.6 22.6  589  99
2026 05 09 09  15 27 14.256   +23 42 15.54  1.8815 2.7219 138.6 22.6  604  99
2026 05 09 10  15 27 11.490   +23 42 32.85  1.8820 2.7223 138.6 22.6  620  99
2026 05 09 11  15 27 08.725   +23 42 50.10  1.8825 2.7227 138.6 22.6  635  99
2026 05 09 12  15 27 05.961   +23 43 07.32  1.8830 2.7231 138.6 22.6  651  99
2026 05 09 13  15 27 03.198   +23 43 24.48  1.8835 2.7235 138.6 22.6  667  99
2026 05 09 14  15 27 00.436   +23 43 41.60  1.8840 2.7239 138.6 22.6  682  99
2026 05 09 15  15 26 57.674   +23 43 58.68  1.8844 2.7243 138.5 22.6  699  99
2026 05 09 16  15 26 54.913   +23 44 15.71  1.8849 2.7247 138.5 22.6  715  99
2026 05 09 17  15 26 52.153   +23 44 32.69  1.8854 2.7251 138.5 22.6  731  99
2026 05 09 18  15 26 49.394   +23 44 49.62  1.8859 2.7255 138.5 22.6  748  99
2026 05 09 19  15 26 46.636   +23 45 06.51  1.8864 2.7259 138.5 22.6  765  99
2026 05 09 20  15 26 43.879   +23 45 23.36  1.8868 2.7263 138.5 22.6  781  99
2026 05 09 21  15 26 41.122   +23 45 40.16  1.8873 2.7267 138.5 22.6  799  99
2026 05 09 22  15 26 38.367   +23 45 56.91  1.8878 2.7271 138.5 22.6  816 100
2026 05 09 23  15 26 35.612   +23 46 13.62  1.8883 2.7275 138.5 22.6  833 100
2026 05 10 00  15 26 32.858   +23 46 30.28  1.8888 2.7279 138.5 22.6  851 100
2026 05 10 01  15 26 30.105   +23 46 46.89  1.8893 2.7283 138.5 22.6  869 100